contact:dominique.lefevre@mio.osupytheas.fr, maurice.libes@osupytheas.fr, didier.mallarino@osupytheas.fr
Project:EMSO http://www.emso-fr.org/EMSO-France
Depth: 2436.0 m
Title:EMSO Ligure Ouest : Data MII capteur MICROCAT
DateTime_Computer,Latitude,Longitude,Temperature,Conductivity,Pressure,DateTime_Instrument
DateTime_Computer,Latitude,Longitude,degC,S m-1,dbar,DateTime_Instrument
2021-08-18T00:01:02Z,42.805,6.029,13.3043,4.60053,2470.366,2021-8-18T02:02:20Z
2021-08-18T00:04:05Z,42.805,6.029,13.3068,4.60095,2470.357,2021-8-18T02:05:23Z
2021-08-18T00:07:08Z,42.805,6.029,13.3079,4.60080,2470.334,2021-8-18T02:08:27Z
2021-08-18T00:10:11Z,42.805,6.029,13.3069,4.60061,2470.31,2021-8-18T02:11:30Z
2021-08-18T00:13:14Z,42.805,6.029,13.3037,4.60069,2470.32,2021-8-18T02:14:33Z
2021-08-18T00:16:17Z,42.805,6.029,13.3043,4.60076,2470.38,2021-8-18T02:17:36Z
2021-08-18T00:19:20Z,42.805,6.029,13.3030,4.60049,2470.366,2021-8-18T02:20:39Z
2021-08-18T00:22:23Z,42.805,6.029,13.3037,4.60086,2470.366,2021-8-18T02:23:42Z
2021-08-18T00:25:27Z,42.805,6.029,13.3048,4.60049,2470.357,2021-8-18T02:26:45Z
2021-08-18T00:28:30Z,42.805,6.029,13.3036,4.60074,2470.343,2021-8-18T02:29:48Z
2021-08-18T00:31:33Z,42.805,6.029,13.3056,4.60044,2470.366,2021-8-18T02:32:52Z
2021-08-18T00:34:36Z,42.805,6.029,13.3036,4.60067,2470.357,2021-8-18T02:35:55Z
2021-08-18T00:37:39Z,42.805,6.029,13.3027,4.60064,2470.39,2021-8-18T02:38:58Z
2021-08-18T00:40:42Z,42.805,6.029,13.3033,4.60106,2470.357,2021-8-18T02:42:01Z
2021-08-18T00:43:45Z,42.805,6.029,13.3051,4.60072,2470.38,2021-8-18T02:45:04Z
2021-08-18T00:46:48Z,42.805,6.029,13.3038,4.60056,2470.343,2021-8-18T02:48:07Z
2021-08-18T00:49:52Z,42.805,6.029,13.3054,4.60054,2470.366,2021-8-18T02:51:10Z
2021-08-18T00:52:55Z,42.805,6.029,13.3043,4.60094,2470.366,2021-8-18T02:54:13Z
2021-08-18T00:55:58Z,42.805,6.029,13.3067,4.60097,2470.357,2021-8-18T02:57:17Z
2021-08-18T00:59:01Z,42.805,6.029,13.3063,4.60089,2470.32,2021-8-18T03:00:20Z
2021-08-18T01:02:04Z,42.805,6.029,13.3059,4.60068,2470.343,2021-8-18T03:03:23Z
2021-08-18T01:05:07Z,42.805,6.029,13.3066,4.60108,2470.357,2021-8-18T03:06:26Z
2021-08-18T01:08:10Z,42.805,6.029,13.3048,4.60104,2470.357,2021-8-18T03:09:29Z
2021-08-18T01:11:13Z,42.805,6.029,13.3071,4.60103,2470.357,2021-8-18T03:12:32Z
2021-08-18T01:14:17Z,42.805,6.029,13.3045,4.60102,2470.39,2021-8-18T03:15:35Z
2021-08-18T01:17:20Z,42.805,6.029,13.3021,4.60096,2470.39,2021-8-18T03:18:38Z
2021-08-18T01:20:23Z,42.805,6.029,13.3045,4.60107,2470.357,2021-8-18T03:21:41Z
2021-08-18T01:23:26Z,42.805,6.029,13.3048,4.60096,2470.38,2021-8-18T03:24:45Z
2021-08-18T01:26:29Z,42.805,6.029,13.3048,4.60087,2470.38,2021-8-18T03:27:48Z
2021-08-18T01:29:32Z,42.805,6.029,13.3048,4.60087,2470.38,2021-8-18T03:30:51Z
2021-08-18T01:32:35Z,42.805,6.029,13.3052,4.60123,2470.404,2021-8-18T03:33:54Z
2021-08-18T01:35:38Z,42.805,6.029,13.3066,4.60113,2470.343,2021-8-18T03:36:57Z
2021-08-18T01:38:42Z,42.805,6.029,13.3047,4.60109,2470.38,2021-8-18T03:40:00Z
2021-08-18T01:41:45Z,42.805,6.029,13.3039,4.60094,2470.357,2021-8-18T03:43:03Z
2021-08-18T01:44:48Z,42.805,6.029,13.3052,4.60088,2470.366,2021-8-18T03:46:06Z
2021-08-18T01:47:51Z,42.805,6.029,13.3067,4.60115,2470.357,2021-8-18T03:49:10Z
2021-08-18T01:50:54Z,42.805,6.029,13.3048,4.60087,2470.413,2021-8-18T03:52:13Z
2021-08-18T01:53:57Z,42.805,6.029,13.3049,4.60107,2470.38,2021-8-18T03:55:16Z
2021-08-18T01:57:00Z,42.805,6.029,13.3053,4.60106,2470.427,2021-8-18T03:58:19Z
2021-08-18T02:00:03Z,42.805,6.029,13.3024,4.60083,2470.39,2021-8-18T04:01:22Z
2021-08-18T02:03:06Z,42.805,6.029,13.3034,4.60107,2470.413,2021-8-18T04:04:25Z
2021-08-18T02:06:10Z,42.805,6.029,13.3031,4.60092,2470.366,2021-8-18T04:07:28Z
2021-08-18T02:09:13Z,42.805,6.029,13.3044,4.60084,2470.38,2021-8-18T04:10:31Z
2021-08-18T02:12:16Z,42.805,6.029,13.3040,4.60074,2470.343,2021-8-18T04:13:35Z
2021-08-18T02:15:19Z,42.805,6.029,13.3051,4.60099,2470.343,2021-8-18T04:16:38Z
2021-08-18T02:18:22Z,42.805,6.029,13.3058,4.60083,2470.366,2021-8-18T04:19:41Z
2021-08-18T02:21:25Z,42.805,6.029,13.3058,4.60093,2470.38,2021-8-18T04:22:44Z
2021-08-18T02:24:28Z,42.805,6.029,13.3036,4.60078,2470.39,2021-8-18T04:25:47Z
2021-08-18T02:27:32Z,42.805,6.029,13.3028,4.60088,2470.38,2021-8-18T04:28:50Z
2021-08-18T02:30:35Z,42.805,6.029,13.3044,4.60099,2470.366,2021-8-18T04:31:53Z
2021-08-18T02:33:38Z,42.805,6.029,13.3034,4.60084,2470.404,2021-8-18T04:34:56Z
2021-08-18T02:36:41Z,42.805,6.029,13.3033,4.60090,2470.38,2021-8-18T04:38:00Z
2021-08-18T02:39:44Z,42.805,6.029,13.3039,4.60078,2470.39,2021-8-18T04:41:03Z
2021-08-18T02:42:47Z,42.805,6.029,13.3028,4.60110,2470.39,2021-8-18T04:44:06Z
2021-08-18T02:45:50Z,42.805,6.029,13.3028,4.60079,2470.366,2021-8-18T04:47:09Z
2021-08-18T02:48:53Z,42.805,6.029,13.3042,4.60099,2470.366,2021-8-18T04:50:12Z
2021-08-18T02:51:56Z,42.805,6.029,13.3023,4.60081,2470.343,2021-8-18T04:53:15Z
2021-08-18T02:55:00Z,42.805,6.029,13.3050,4.60072,2470.38,2021-8-18T04:56:18Z
2021-08-18T02:58:03Z,42.805,6.029,13.3025,4.60079,2470.404,2021-8-18T04:59:21Z
2021-08-18T03:01:06Z,42.805,6.029,13.3030,4.60079,2470.404,2021-8-18T05:02:25Z
2021-08-18T03:04:09Z,42.805,6.029,13.3029,4.60100,2470.38,2021-8-18T05:05:28Z
2021-08-18T03:07:12Z,42.805,6.029,13.3026,4.60077,2470.427,2021-8-18T05:08:31Z
2021-08-18T03:10:15Z,42.805,6.029,13.3024,4.60074,2470.39,2021-8-18T05:11:34Z
2021-08-18T03:13:18Z,42.805,6.029,13.3034,4.60062,2470.366,2021-8-18T05:14:37Z
2021-08-18T03:16:21Z,42.805,6.029,13.3029,4.60087,2470.39,2021-8-18T05:17:40Z
2021-08-18T03:19:25Z,42.805,6.029,13.3023,4.60104,2470.38,2021-8-18T05:20:43Z
2021-08-18T03:22:28Z,42.805,6.029,13.3029,4.60079,2470.366,2021-8-18T05:23:46Z
2021-08-18T03:25:31Z,42.805,6.029,13.3036,4.60073,2470.366,2021-8-18T05:26:50Z
2021-08-18T03:28:34Z,42.805,6.029,13.3036,4.60082,2470.404,2021-8-18T05:29:53Z
2021-08-18T03:31:37Z,42.805,6.029,13.3040,4.60072,2470.343,2021-8-18T05:32:56Z
2021-08-18T03:34:40Z,42.805,6.029,13.3043,4.60062,2470.357,2021-8-18T05:35:59Z
2021-08-18T03:37:43Z,42.805,6.029,13.3038,4.60067,2470.39,2021-8-18T05:39:02Z
2021-08-18T03:40:46Z,42.805,6.029,13.3034,4.60072,2470.343,2021-8-18T05:42:05Z
2021-08-18T03:43:50Z,42.805,6.029,13.3034,4.60069,2470.366,2021-8-18T05:45:08Z
2021-08-18T03:46:53Z,42.805,6.029,13.3026,4.60075,2470.38,2021-8-18T05:48:11Z
2021-08-18T03:49:56Z,42.805,6.029,13.3033,4.60080,2470.366,2021-8-18T05:51:15Z
2021-08-18T03:52:59Z,42.805,6.029,13.3031,4.60085,2470.39,2021-8-18T05:54:18Z
2021-08-18T03:56:02Z,42.805,6.029,13.3026,4.60093,2470.39,2021-8-18T05:57:21Z
2021-08-18T03:59:05Z,42.805,6.029,13.3024,4.60083,2470.343,2021-8-18T06:00:24Z
2021-08-18T04:02:08Z,42.805,6.029,13.3026,4.60072,2470.343,2021-8-18T06:03:27Z
2021-08-18T04:05:11Z,42.805,6.029,13.3019,4.60067,2470.38,2021-8-18T06:06:30Z
2021-08-18T04:08:15Z,42.805,6.029,13.3018,4.60044,2470.38,2021-8-18T06:09:33Z
2021-08-18T04:11:18Z,42.805,6.029,13.3027,4.60067,2470.343,2021-8-18T06:12:36Z
2021-08-18T04:14:21Z,42.805,6.029,13.3036,4.60051,2470.38,2021-8-18T06:15:40Z
2021-08-18T04:17:24Z,42.805,6.029,13.3029,4.60075,2470.366,2021-8-18T06:18:43Z
2021-08-18T04:20:27Z,42.805,6.029,13.3024,4.60090,2470.366,2021-8-18T06:21:46Z
2021-08-18T04:23:30Z,42.805,6.029,13.3048,4.60074,2470.39,2021-8-18T06:24:49Z
2021-08-18T04:26:33Z,42.805,6.029,13.3024,4.60076,2470.39,2021-8-18T06:27:52Z
2021-08-18T04:29:36Z,42.805,6.029,13.3021,4.60074,2470.39,2021-8-18T06:30:55Z
2021-08-18T04:32:40Z,42.805,6.029,13.3044,4.60062,2470.366,2021-8-18T06:33:58Z
2021-08-18T04:35:43Z,42.805,6.029,13.3026,4.60063,2470.39,2021-8-18T06:37:01Z
2021-08-18T04:38:46Z,42.805,6.029,13.3018,4.60062,2470.404,2021-8-18T06:40:05Z
2021-08-18T04:41:49Z,42.805,6.029,13.3023,4.60066,2470.39,2021-8-18T06:43:08Z
2021-08-18T04:44:52Z,42.805,6.029,13.3016,4.60076,2470.404,2021-8-18T06:46:11Z
2021-08-18T04:47:55Z,42.805,6.029,13.3034,4.60077,2470.366,2021-8-18T06:49:14Z
2021-08-18T04:50:58Z,42.805,6.029,13.3030,4.60062,2470.38,2021-8-18T06:52:17Z
2021-08-18T04:54:01Z,42.805,6.029,13.3024,4.60060,2470.366,2021-8-18T06:55:20Z
2021-08-18T04:57:05Z,42.805,6.029,13.3017,4.60060,2470.38,2021-8-18T06:58:23Z
2021-08-18T05:00:08Z,42.805,6.029,13.3023,4.60068,2470.38,2021-8-18T07:01:26Z
2021-08-18T05:03:11Z,42.805,6.029,13.3029,4.60060,2470.413,2021-8-18T07:04:30Z
2021-08-18T05:06:14Z,42.805,6.029,13.3025,4.60057,2470.404,2021-8-18T07:07:33Z
2021-08-18T05:09:17Z,42.805,6.029,13.3023,4.60070,2470.366,2021-8-18T07:10:36Z
2021-08-18T05:12:20Z,42.805,6.029,13.3029,4.60074,2470.404,2021-8-18T07:13:39Z
2021-08-18T05:15:23Z,42.805,6.029,13.3026,4.60066,2470.366,2021-8-18T07:16:42Z
2021-08-18T05:18:26Z,42.805,6.029,13.3020,4.60064,2470.366,2021-8-18T07:19:45Z
2021-08-18T05:21:30Z,42.805,6.029,13.3014,4.60042,2470.38,2021-8-18T07:22:48Z
2021-08-18T05:24:33Z,42.805,6.029,13.3009,4.60044,2470.357,2021-8-18T07:25:51Z
2021-08-18T05:27:36Z,42.805,6.029,13.3014,4.60056,2470.366,2021-8-18T07:28:54Z
2021-08-18T05:30:39Z,42.805,6.029,13.3030,4.60040,2470.38,2021-8-18T07:31:58Z
2021-08-18T05:33:42Z,42.805,6.029,13.3022,4.60069,2470.366,2021-8-18T07:35:01Z
2021-08-18T05:36:45Z,42.805,6.029,13.3016,4.60073,2470.366,2021-8-18T07:38:04Z
2021-08-18T05:39:48Z,42.805,6.029,13.3019,4.60061,2470.38,2021-8-18T07:41:07Z
2021-08-18T05:42:51Z,42.805,6.029,13.3011,4.60041,2470.343,2021-8-18T07:44:10Z
2021-08-18T05:45:55Z,42.805,6.029,13.3016,4.60055,2470.404,2021-8-18T07:47:13Z
2021-08-18T05:48:58Z,42.805,6.029,13.3020,4.60069,2470.404,2021-8-18T07:50:16Z
2021-08-18T05:52:01Z,42.805,6.029,13.3022,4.60077,2470.366,2021-8-18T07:53:20Z
2021-08-18T05:55:04Z,42.805,6.029,13.3031,4.60084,2470.343,2021-8-18T07:56:23Z
2021-08-18T05:58:07Z,42.805,6.029,13.3024,4.60066,2470.343,2021-8-18T07:59:26Z
2021-08-18T06:01:10Z,42.805,6.029,13.3029,4.60060,2470.404,2021-8-18T08:02:29Z
2021-08-18T06:04:13Z,42.805,6.029,13.3019,4.60059,2470.32,2021-8-18T08:05:32Z
2021-08-18T06:07:16Z,42.805,6.029,13.3015,4.60052,2470.404,2021-8-18T08:08:35Z
2021-08-18T06:10:19Z,42.805,6.029,13.3022,4.60062,2470.38,2021-8-18T08:11:38Z
2021-08-18T06:13:23Z,42.805,6.029,13.3019,4.60067,2470.343,2021-8-18T08:14:41Z
2021-08-18T06:16:26Z,42.805,6.029,13.3024,4.60074,2470.38,2021-8-18T08:17:44Z
2021-08-18T06:19:29Z,42.805,6.029,13.3018,4.60072,2470.366,2021-8-18T08:20:48Z
2021-08-18T06:22:32Z,42.805,6.029,13.3029,4.60075,2470.343,2021-8-18T08:23:51Z
2021-08-18T06:25:35Z,42.805,6.029,13.3017,4.60068,2470.366,2021-8-18T08:26:54Z
2021-08-18T06:28:38Z,42.805,6.029,13.3022,4.60072,2470.343,2021-8-18T08:29:57Z
2021-08-18T06:31:41Z,42.805,6.029,13.3017,4.60074,2470.366,2021-8-18T08:33:00Z
2021-08-18T06:34:44Z,42.805,6.029,13.3021,4.60062,2470.357,2021-8-18T08:36:03Z
2021-08-18T06:37:48Z,42.805,6.029,13.3020,4.60054,2470.343,2021-8-18T08:39:06Z
2021-08-18T06:40:51Z,42.805,6.029,13.3042,4.60072,2470.366,2021-8-18T08:42:09Z
2021-08-18T06:43:54Z,42.805,6.029,13.3016,4.60076,2470.357,2021-8-18T08:45:13Z
2021-08-18T06:46:57Z,42.805,6.029,13.3012,4.60040,2470.357,2021-8-18T08:48:16Z
2021-08-18T06:50:00Z,42.805,6.029,13.3022,4.60046,2470.343,2021-8-18T08:51:19Z
2021-08-18T06:53:03Z,42.805,6.029,13.3012,4.60041,2470.334,2021-8-18T08:54:22Z
2021-08-18T06:56:06Z,42.805,6.029,13.3021,4.60066,2470.32,2021-8-18T08:57:25Z
2021-08-18T06:59:09Z,42.805,6.029,13.3029,4.60048,2470.366,2021-8-18T09:00:28Z
2021-08-18T07:02:13Z,42.805,6.029,13.3019,4.60031,2470.343,2021-8-18T09:03:31Z
2021-08-18T07:05:16Z,42.805,6.029,13.3024,4.60062,2470.357,2021-8-18T09:06:34Z
2021-08-18T07:08:19Z,42.805,6.029,13.3012,4.60081,2470.297,2021-8-18T09:09:38Z
2021-08-18T07:11:22Z,42.805,6.029,13.3009,4.60051,2470.357,2021-8-18T09:12:41Z
2021-08-18T07:14:25Z,42.805,6.029,13.3021,4.60038,2470.334,2021-8-18T09:15:44Z
2021-08-18T07:17:28Z,42.805,6.029,13.3023,4.60072,2470.32,2021-8-18T09:18:47Z
2021-08-18T07:20:31Z,42.805,6.029,13.3039,4.60036,2470.357,2021-8-18T09:21:50Z
2021-08-18T07:23:34Z,42.805,6.029,13.3018,4.60062,2470.32,2021-8-18T09:24:53Z
2021-08-18T07:26:38Z,42.805,6.029,13.3029,4.60067,2470.357,2021-8-18T09:27:56Z
2021-08-18T07:29:41Z,42.805,6.029,13.3036,4.60039,2470.334,2021-8-18T09:30:59Z
2021-08-18T07:32:44Z,42.805,6.029,13.3021,4.60056,2470.31,2021-8-18T09:34:03Z
2021-08-18T07:35:47Z,42.805,6.029,13.3016,4.60062,2470.343,2021-8-18T09:37:06Z
2021-08-18T07:38:50Z,42.805,6.029,13.3012,4.60050,2470.357,2021-8-18T09:40:09Z
2021-08-18T07:41:53Z,42.805,6.029,13.3030,4.60063,2470.357,2021-8-18T09:43:12Z
2021-08-18T07:44:56Z,42.805,6.029,13.3014,4.60037,2470.32,2021-8-18T09:46:15Z
2021-08-18T07:47:59Z,42.805,6.029,13.3024,4.60076,2470.32,2021-8-18T09:49:18Z
2021-08-18T07:51:03Z,42.805,6.029,13.3023,4.60047,2470.287,2021-8-18T09:52:21Z
2021-08-18T07:54:06Z,42.805,6.029,13.3032,4.60048,2470.334,2021-8-18T09:55:24Z
2021-08-18T07:57:09Z,42.805,6.029,13.3025,4.60072,2470.38,2021-8-18T09:58:28Z
2021-08-18T08:00:12Z,42.805,6.029,13.3031,4.60074,2470.343,2021-8-18T10:01:31Z
2021-08-18T08:03:15Z,42.805,6.029,13.3023,4.60070,2470.297,2021-8-18T10:04:34Z
2021-08-18T08:06:18Z,42.805,6.029,13.3018,4.60056,2470.31,2021-8-18T10:07:37Z
2021-08-18T08:09:21Z,42.805,6.029,13.3024,4.60034,2470.297,2021-8-18T10:10:40Z
2021-08-18T08:12:24Z,42.805,6.029,13.3019,4.60069,2470.334,2021-8-18T10:13:43Z
2021-08-18T08:15:28Z,42.805,6.029,13.3033,4.60089,2470.297,2021-8-18T10:16:46Z
2021-08-18T08:18:31Z,42.805,6.029,13.3036,4.60091,2470.334,2021-8-18T10:19:49Z
2021-08-18T08:21:34Z,42.805,6.029,13.3029,4.60058,2470.357,2021-8-18T10:22:53Z
2021-08-18T08:24:37Z,42.805,6.029,13.3036,4.60062,2470.334,2021-8-18T10:25:56Z
2021-08-18T08:27:40Z,42.805,6.029,13.3030,4.60079,2470.273,2021-8-18T10:28:59Z
2021-08-18T08:30:43Z,42.805,6.029,13.3021,4.60054,2470.334,2021-8-18T10:32:02Z
2021-08-18T08:33:46Z,42.805,6.029,13.3018,4.60074,2470.297,2021-8-18T10:35:05Z
2021-08-18T08:36:50Z,42.805,6.029,13.3031,4.60040,2470.297,2021-8-18T10:38:08Z
2021-08-18T08:39:53Z,42.805,6.029,13.3033,4.60065,2470.343,2021-8-18T10:41:11Z
2021-08-18T08:42:56Z,42.805,6.029,13.3031,4.60067,2470.32,2021-8-18T10:44:15Z
2021-08-18T08:45:59Z,42.805,6.029,13.3016,4.60067,2470.357,2021-8-18T10:47:18Z
2021-08-18T08:49:02Z,42.805,6.029,13.3043,4.60076,2470.297,2021-8-18T10:50:21Z
2021-08-18T08:52:05Z,42.805,6.029,13.3040,4.60085,2470.31,2021-8-18T10:53:24Z
2021-08-18T08:55:08Z,42.805,6.029,13.3029,4.60076,2470.31,2021-8-18T10:56:27Z
2021-08-18T08:58:11Z,42.805,6.029,13.3043,4.60066,2470.297,2021-8-18T10:59:30Z
2021-08-18T09:01:15Z,42.805,6.029,13.3027,4.60064,2470.334,2021-8-18T11:02:33Z
2021-08-18T09:04:18Z,42.805,6.029,13.3019,4.60081,2470.31,2021-8-18T11:05:36Z
2021-08-18T09:07:21Z,42.805,6.029,13.3027,4.60070,2470.31,2021-8-18T11:08:40Z
2021-08-18T09:10:24Z,42.805,6.029,13.3032,4.60079,2470.32,2021-8-18T11:11:43Z
2021-08-18T09:13:27Z,42.805,6.029,13.3022,4.60080,2470.334,2021-8-18T11:14:46Z
2021-08-18T09:16:30Z,42.805,6.029,13.3029,4.60036,2470.297,2021-8-18T11:17:49Z
2021-08-18T09:19:33Z,42.805,6.029,13.3031,4.60079,2470.287,2021-8-18T11:20:52Z
2021-08-18T09:22:36Z,42.805,6.029,13.3023,4.60072,2470.297,2021-8-18T11:23:55Z
2021-08-18T09:25:40Z,42.805,6.029,13.3031,4.60047,2470.273,2021-8-18T11:26:58Z
2021-08-18T09:28:43Z,42.805,6.029,13.3030,4.60058,2470.297,2021-8-18T11:30:01Z
2021-08-18T09:31:46Z,42.805,6.029,13.3026,4.60076,2470.297,2021-8-18T11:33:05Z
2021-08-18T09:34:49Z,42.805,6.029,13.3020,4.60067,2470.297,2021-8-18T11:36:08Z
2021-08-18T09:37:52Z,42.805,6.029,13.3033,4.60069,2470.297,2021-8-18T11:39:11Z
2021-08-18T09:40:55Z,42.805,6.029,13.3030,4.60075,2470.297,2021-8-18T11:42:14Z
2021-08-18T09:43:58Z,42.805,6.029,13.3029,4.60071,2470.273,2021-8-18T11:45:17Z
2021-08-18T09:47:01Z,42.805,6.029,13.3021,4.60033,2470.287,2021-8-18T11:48:20Z
2021-08-18T09:50:05Z,42.805,6.029,13.3021,4.60066,2470.297,2021-8-18T11:51:23Z
2021-08-18T09:53:08Z,42.805,6.029,13.3027,4.60070,2470.273,2021-8-18T11:54:26Z
2021-08-18T09:56:11Z,42.805,6.029,13.3027,4.60074,2470.287,2021-8-18T11:57:30Z
2021-08-18T09:59:14Z,42.805,6.029,13.3039,4.60068,2470.287,2021-8-18T12:00:33Z
2021-08-18T10:02:17Z,42.805,6.029,13.3019,4.60079,2470.32,2021-8-18T12:03:36Z
2021-08-18T10:05:20Z,42.805,6.029,13.3026,4.60082,2470.297,2021-8-18T12:06:39Z
2021-08-18T10:08:23Z,42.805,6.029,13.3034,4.60079,2470.31,2021-8-18T12:09:42Z
2021-08-18T10:11:26Z,42.805,6.029,13.3025,4.60054,2470.273,2021-8-18T12:12:45Z
2021-08-18T10:14:30Z,42.805,6.029,13.3018,4.60057,2470.273,2021-8-18T12:15:48Z
2021-08-18T10:17:33Z,42.805,6.029,13.3033,4.60077,2470.334,2021-8-18T12:18:51Z
2021-08-18T10:20:36Z,42.805,6.029,13.3009,4.60074,2470.31,2021-8-18T12:21:55Z
2021-08-18T10:23:39Z,42.805,6.029,13.3020,4.60064,2470.273,2021-8-18T12:24:58Z
2021-08-18T10:26:42Z,42.805,6.029,13.3019,4.60067,2470.264,2021-8-18T12:28:01Z
2021-08-18T10:29:45Z,42.805,6.029,13.3028,4.60081,2470.32,2021-8-18T12:31:04Z
2021-08-18T10:32:48Z,42.805,6.029,13.3033,4.60075,2470.297,2021-8-18T12:34:07Z
2021-08-18T10:35:52Z,42.805,6.029,13.3029,4.60080,2470.287,2021-8-18T12:37:10Z
2021-08-18T10:38:55Z,42.805,6.029,13.3039,4.60070,2470.297,2021-8-18T12:40:13Z
2021-08-18T10:41:58Z,42.805,6.029,13.3035,4.60061,2470.334,2021-8-18T12:43:16Z
2021-08-18T10:45:01Z,42.805,6.029,13.3026,4.60092,2470.334,2021-8-18T12:46:20Z
2021-08-18T10:48:04Z,42.805,6.029,13.3029,4.60066,2470.273,2021-8-18T12:49:23Z
2021-08-18T10:51:07Z,42.805,6.029,13.3016,4.60057,2470.343,2021-8-18T12:52:26Z
2021-08-18T10:54:10Z,42.805,6.029,13.3018,4.60052,2470.32,2021-8-18T12:55:29Z
2021-08-18T10:57:13Z,42.805,6.029,13.3031,4.60080,2470.297,2021-8-18T12:58:32Z
2021-08-18T11:00:17Z,42.805,6.029,13.3031,4.60079,2470.32,2021-8-18T13:01:35Z
2021-08-18T11:03:20Z,42.805,6.029,13.3025,4.60091,2470.32,2021-8-18T13:04:38Z
2021-08-18T11:06:23Z,42.805,6.029,13.3024,4.60070,2470.334,2021-8-18T13:07:42Z
2021-08-18T11:09:26Z,42.805,6.029,13.3020,4.60070,2470.343,2021-8-18T13:10:45Z
2021-08-18T11:12:29Z,42.805,6.029,13.3042,4.60064,2470.32,2021-8-18T13:13:48Z
2021-08-18T11:15:32Z,42.805,6.029,13.3020,4.60079,2470.273,2021-8-18T13:16:51Z
2021-08-18T11:18:35Z,42.805,6.029,13.3031,4.60077,2470.343,2021-8-18T13:19:54Z
2021-08-18T11:21:38Z,42.805,6.029,13.3029,4.60078,2470.32,2021-8-18T13:22:57Z
2021-08-18T11:24:42Z,42.805,6.029,13.3022,4.60075,2470.357,2021-8-18T13:26:00Z
2021-08-18T11:27:45Z,42.805,6.029,13.3038,4.60078,2470.32,2021-8-18T13:29:03Z
2021-08-18T11:30:48Z,42.805,6.029,13.3028,4.60075,2470.306,2021-8-18T13:32:07Z
2021-08-18T11:33:51Z,42.805,6.029,13.3020,4.60099,2470.297,2021-8-18T13:35:10Z
2021-08-18T11:36:54Z,42.805,6.029,13.3021,4.60088,2470.343,2021-8-18T13:38:13Z
2021-08-18T11:39:57Z,42.805,6.029,13.3032,4.60059,2470.334,2021-8-18T13:41:16Z
2021-08-18T11:43:00Z,42.805,6.029,13.3048,4.60081,2470.357,2021-8-18T13:44:19Z
2021-08-18T11:46:03Z,42.805,6.029,13.3035,4.60066,2470.343,2021-8-18T13:47:22Z
2021-08-18T11:49:07Z,42.805,6.029,13.3021,4.60078,2470.343,2021-8-18T13:50:25Z
2021-08-18T11:52:10Z,42.805,6.029,13.3014,4.60064,2470.343,2021-8-18T13:53:28Z
2021-08-18T11:55:13Z,42.805,6.029,13.3027,4.60081,2470.343,2021-8-18T13:56:32Z
2021-08-18T11:58:16Z,42.805,6.029,13.3041,4.60067,2470.343,2021-8-18T13:59:35Z
2021-08-18T12:01:19Z,42.805,6.029,13.3030,4.60072,2470.343,2021-8-18T14:02:38Z
2021-08-18T12:04:22Z,42.805,6.029,13.3033,4.60085,2470.343,2021-8-18T14:05:41Z
2021-08-18T12:07:25Z,42.805,6.029,13.3037,4.60094,2470.38,2021-8-18T14:08:44Z
2021-08-18T12:10:28Z,42.805,6.029,13.3040,4.60064,2470.357,2021-8-18T14:11:47Z
2021-08-18T12:13:32Z,42.805,6.029,13.3029,4.60071,2470.38,2021-8-18T14:14:50Z
2021-08-18T12:16:35Z,42.805,6.029,13.3034,4.60087,2470.39,2021-8-18T14:17:53Z
2021-08-18T12:19:38Z,42.805,6.029,13.3036,4.60079,2470.357,2021-8-18T14:20:57Z
2021-08-18T12:22:41Z,42.805,6.029,13.3027,4.60072,2470.366,2021-8-18T14:24:00Z
2021-08-18T12:25:44Z,42.805,6.029,13.3039,4.60053,2470.39,2021-8-18T14:27:03Z
2021-08-18T12:28:47Z,42.805,6.029,13.3021,4.60066,2470.343,2021-8-18T14:30:06Z
2021-08-18T12:31:50Z,42.805,6.029,13.3043,4.60087,2470.366,2021-8-18T14:33:09Z
2021-08-18T12:34:53Z,42.805,6.029,13.3027,4.60066,2470.39,2021-8-18T14:36:12Z
2021-08-18T12:37:57Z,42.805,6.029,13.3036,4.60069,2470.343,2021-8-18T14:39:15Z
2021-08-18T12:41:00Z,42.805,6.029,13.3013,4.60075,2470.38,2021-8-18T14:42:18Z
2021-08-18T12:44:03Z,42.805,6.029,13.3015,4.60085,2470.376,2021-8-18T14:45:22Z
2021-08-18T12:47:06Z,42.805,6.029,13.3031,4.60069,2470.366,2021-8-18T14:48:25Z
2021-08-18T12:50:09Z,42.805,6.029,13.3015,4.60066,2470.366,2021-8-18T14:51:28Z
2021-08-18T12:53:12Z,42.805,6.029,13.3017,4.60058,2470.404,2021-8-18T14:54:31Z
2021-08-18T12:56:15Z,42.805,6.029,13.3037,4.60064,2470.39,2021-8-18T14:57:34Z
2021-08-18T12:59:19Z,42.805,6.029,13.3038,4.60067,2470.366,2021-8-18T15:00:37Z
2021-08-18T13:02:22Z,42.805,6.029,13.3031,4.60067,2470.427,2021-8-18T15:03:40Z
2021-08-18T13:05:25Z,42.805,6.029,13.3031,4.60059,2470.38,2021-8-18T15:06:44Z
2021-08-18T13:08:28Z,42.805,6.029,13.3024,4.60056,2470.427,2021-8-18T15:09:47Z
2021-08-18T13:11:31Z,42.805,6.029,13.3025,4.60065,2470.39,2021-8-18T15:12:50Z
2021-08-18T13:14:34Z,42.805,6.029,13.3028,4.60065,2470.39,2021-8-18T15:15:53Z
2021-08-18T13:17:37Z,42.805,6.029,13.3023,4.60064,2470.404,2021-8-18T15:18:56Z
2021-08-18T13:20:40Z,42.805,6.029,13.3024,4.60063,2470.427,2021-8-18T15:21:59Z
2021-08-18T13:23:44Z,42.805,6.029,13.3027,4.60055,2470.413,2021-8-18T15:25:02Z
2021-08-18T13:26:47Z,42.805,6.029,13.3029,4.60066,2470.427,2021-8-18T15:28:05Z
2021-08-18T13:29:50Z,42.805,6.029,13.3024,4.60064,2470.39,2021-8-18T15:31:09Z
2021-08-18T13:32:53Z,42.805,6.029,13.3019,4.60047,2470.437,2021-8-18T15:34:12Z
2021-08-18T13:35:56Z,42.805,6.029,13.3029,4.60065,2470.437,2021-8-18T15:37:15Z
2021-08-18T13:38:59Z,42.805,6.029,13.3031,4.60057,2470.427,2021-8-18T15:40:18Z
2021-08-18T13:42:02Z,42.805,6.029,13.3029,4.60062,2470.404,2021-8-18T15:43:21Z
2021-08-18T13:45:05Z,42.805,6.029,13.3024,4.60077,2470.404,2021-8-18T15:46:24Z
2021-08-18T13:48:09Z,42.805,6.029,13.3016,4.60072,2470.39,2021-8-18T15:49:27Z
2021-08-18T13:51:12Z,42.805,6.029,13.3017,4.60069,2470.413,2021-8-18T15:52:30Z
2021-08-18T13:54:15Z,42.805,6.029,13.3032,4.60066,2470.437,2021-8-18T15:55:34Z
2021-08-18T13:57:18Z,42.805,6.029,13.3029,4.60057,2470.413,2021-8-18T15:58:37Z
2021-08-18T14:00:21Z,42.805,6.029,13.3020,4.60056,2470.427,2021-8-18T16:01:40Z
2021-08-18T14:03:24Z,42.805,6.029,13.3024,4.60064,2470.413,2021-8-18T16:04:43Z
2021-08-18T14:06:27Z,42.805,6.029,13.3020,4.60071,2470.437,2021-8-18T16:07:46Z
2021-08-18T14:09:30Z,42.805,6.029,13.3015,4.60069,2470.45,2021-8-18T16:10:49Z
2021-08-18T14:12:34Z,42.805,6.029,13.3024,4.60052,2470.497,2021-8-18T16:13:52Z
2021-08-18T14:15:37Z,42.805,6.029,13.3031,4.60036,2470.427,2021-8-18T16:16:55Z
2021-08-18T14:18:40Z,42.805,6.029,13.3024,4.60067,2470.46,2021-8-18T16:19:59Z
2021-08-18T14:21:43Z,42.805,6.029,13.3014,4.60052,2470.474,2021-8-18T16:23:02Z
2021-08-18T14:24:46Z,42.805,6.029,13.3039,4.60069,2470.46,2021-8-18T16:26:05Z
2021-08-18T14:27:49Z,42.805,6.029,13.3028,4.60052,2470.437,2021-8-18T16:29:08Z
2021-08-18T14:30:52Z,42.805,6.029,13.3014,4.60069,2470.474,2021-8-18T16:32:11Z
2021-08-18T14:33:56Z,42.805,6.029,13.3039,4.60067,2470.437,2021-8-18T16:35:14Z
2021-08-18T14:36:59Z,42.805,6.029,13.3033,4.60061,2470.45,2021-8-18T16:38:17Z
2021-08-18T14:40:02Z,42.805,6.029,13.3027,4.60058,2470.474,2021-8-18T16:41:20Z
2021-08-18T14:43:05Z,42.805,6.029,13.3033,4.60067,2470.45,2021-8-18T16:44:24Z
2021-08-18T14:46:08Z,42.805,6.029,13.3018,4.60075,2470.45,2021-8-18T16:47:27Z
2021-08-18T14:49:11Z,42.805,6.029,13.3020,4.60074,2470.474,2021-8-18T16:50:30Z
2021-08-18T14:52:14Z,42.805,6.029,13.3006,4.60072,2470.46,2021-8-18T16:53:33Z
2021-08-18T14:55:17Z,42.805,6.029,13.3035,4.60077,2470.46,2021-8-18T16:56:36Z
2021-08-18T14:58:21Z,42.805,6.029,13.3030,4.60059,2470.46,2021-8-18T16:59:39Z
2021-08-18T15:01:24Z,42.805,6.029,13.3026,4.60069,2470.474,2021-8-18T17:02:42Z
2021-08-18T15:04:27Z,42.805,6.029,13.3020,4.60062,2470.497,2021-8-18T17:05:46Z
2021-08-18T15:07:30Z,42.805,6.029,13.3015,4.60065,2470.437,2021-8-18T17:08:49Z
2021-08-18T15:10:33Z,42.805,6.029,13.3028,4.60064,2470.474,2021-8-18T17:11:52Z
2021-08-18T15:13:36Z,42.805,6.029,13.3019,4.60072,2470.474,2021-8-18T17:14:55Z